Regional Weather Roundup
Issued by NWS

Home | Current Version | Previous Version | Graphics & Text | Print | Product List | Glossary Off
Versions: 1 2 3 4 5 6 7 8 9 10 11 12 13 14 15 16 17 18 19 20 21 22 23 24 25 26 27 28 29 30 31 32 33 34 35 36 37 38 39 40 41 42 43 44 45 46 47 48 49 50

846
ASUS43 KMPX 252110
RWRMN
WEATHER ROUNDUP FOR MINNESOTA
NATIONAL WEATHER SERVICE TWIN CITIES/CHANHASSEN MN
400 PM CDT SUN SEP 25 2016


NOTE: "FAIR" INDICATES FEW OR NO CLOUDS BELOW 12,000 FEET WITH NO
SIGNIFICANT WEATHER AND/OR OBSTRUCTIONS TO VISIBILITY. N/A MEANS
CURRENT SKY AND/OR WEATHER CONDITIONS ARE NOT AVAILABLE.

MNZ060>063-068>070-252200-
   Twin Cities Metro

CITY           SKY/WX    TMP DP  RH WIND       PRES   REMARKS
TWIN CITIES    CLOUDY    62  54  74 W14G24    29.90R
ST PAUL        CLOUDY    63  54  72 W20G25    29.90S
CRYSTAL        LGT RAIN  61  53  75 SW21G26   29.88R
BLAINE         PTSUNNY   64  55  72 SW13      29.88S
LAKEVILLE      CLOUDY    61  54  77 SW8G20    29.91S
EDEN PRAIRIE   LGT RAIN  61  54  77 W15G25    29.90R
LAKEVILLE      CLOUDY    61  54  77 SW8G20    29.91S
SOUTH ST PAUL  CLOUDY    64  53  68 W15       29.90S
LAKE ELMO      CLOUDY    63  54  72 SW15      29.90S
$$
MNZ001>005-007-008-013>017-022>024-027-028-252200-
   Northwest Minnesota

CITY           SKY/WX    TMP DP  RH WIND       PRES   REMARKS
BEMIDJI        CLOUDY    54  51  92 W18       29.78R FOG
HALLOCK        LGT RAIN  52  52 100 W23       29.78R
ROSEAU         CLOUDY    54  48  82 W17G24    29.69R HAZE
WARROAD        CLOUDY    57  54  88 W17G24    29.68R
THIEF RVR FALL LGT RAIN  52  50  93 W22G31    29.81R FOG
CROOKSTON      LGT RAIN  52  52 100 NW25G37   29.84R
FOSSTON        LGT RAIN  52  50  93 W14G28    29.83R
DETROIT LAKES  MIX PCPN  54  50  87 NW22G32   29.89R
MOORHEAD       CLOUDY    57  46  67 NW26G39   29.92R
PARK RAPIDS    CLOUDY    59  48  67 W22G33    29.82R
MAHNOMEN       CLOUDY    54  51  89 W21G26    29.85R
$$
MNZ006-009>011-018-025>026-252200-
   North Central Minnesota

CITY           SKY/WX    TMP DP  RH WIND       PRES   REMARKS
BAUDETTE       CLOUDY    59  53  80 SW10      29.66S
FLAG ISLAND    CLOUDY    57  54  88 SW13      29.63R
INTL FALLS     CLOUDY    60  51  72 SW15G26   29.67S
WASKISH        CLOUDY    55  54  94 W18G29    29.71R
BIG FORK       LGT RAIN  59  54  82 SW8       29.73S
GRAND RAPIDS   CLOUDY    58  52  80 SW12G21   29.78S
CRANE LAKE     CLOUDY    61  52  72 SW7G16    29.71R
ORR            CLOUDY    61  48  63 SW6       29.69S
COOK           CLOUDY    61  52  72 SW15G21   29.73S
WALKER         DRIZZLE   55  50  84 W20G26    29.79R
$$
MNZ012-019>021-037-252200-
   Northeast Minnesota

CITY           SKY/WX    TMP DP  RH WIND       PRES   REMARKS
DULUTH         CLOUDY    61  53  75 SW16      29.78S
ELY            CLOUDY    63  52  67 SW17G25   29.72R
HIBBING        CLOUDY    59  52  77 VRB6      29.75S
EVELETH        PTSUNNY   60  51  71 SW14      29.76F
DULUTH HARBOR  CLOUDY    63  55  77 SW12G22   29.79S
TWO HARBORS    PTSUNNY   66  57  72 W15G22    29.75R
SILVER BAY     MOSUNNY   66  57  72 SW13G21   29.71S
GRAND MARAIS     N/A     62  62 100 SW10      29.73S
G MARAIS ARPRT CLOUDY    59  55  88 S10G17    29.76F FOG
$$
MNZ029>031-032-039>041-046>048-054>057-064-252200-
   West Central Minnesota

CITY           SKY/WX    TMP DP  RH WIND       PRES   REMARKS
FERGUS FALLS   CLOUDY    57  46  67 NW25G35   29.93R
MORRIS         CLOUDY    63  46  55 NW30G40   29.93R
ALEXANDRIA     CLOUDY    60  48  64 NW26G35   29.91S
ELBOW LAKE     CLOUDY    58  48  68 NW15G23   29.93R
GLENWOOD       MOSUNNY   59  48  67 W17G31    29.92R
BENSON         CLOUDY    61  45  55 NW24G32   29.94R
MADISON          N/A     64  48  55 NW18G29   29.98R
WILLMAR        PTSUNNY   63  50  63 W22G30    29.94S
$$
MNZ033>034-036-042>043-049>051-058-059-252200-
   Central Minnesota

CITY           SKY/WX    TMP DP  RH WIND       PRES   REMARKS
ST CLOUD       CLOUDY    60  52  74 W15G29    29.87R
SAUK CENTRE    CLOUDY    59  49  69 W20G30    29.89S
PAYNESVILLE    CLOUDY    61  48  63 W22G30    29.91S
AITKIN         CLOUDY    61  52  72 SW14G22   29.80S
PINE RIVER     CLOUDY    57  52  82 W14       29.85R
BRAINERD       CLOUDY    58  52  80 W20G30    29.84S
STAPLES        CLOUDY    55  50  82 W20G28    29.85S
LONG PRAIRIE   CLOUDY    55  50  82 W17G29    29.89R
LITTLE FALLS   RAIN      59  50  72 W17       29.86S
LITCHFIELD     PTSUNNY   63  54  72 W15G25    29.92R
BUFFALO        CLOUDY    59  54  84 W7        29.91R
MAPLE LAKE     CLOUDY    62  54  75 W14G24    29.90S
HUTCHINSON     LGT RAIN  58  55  89 W9        29.95R
$$
MNZ037-044-045-052-053-252200-
   East Central Minnesota

CITY           SKY/WX    TMP DP  RH WIND       PRES   REMARKS
PRINCETON      CLOUDY    63  55  77 W14G23    29.86S
MORA           PTSUNNY   59  50  72 W14       29.85F
CAMBRIDGE      CLOUDY    63  55  77 SW5       29.84S
MOOSE LAKE     CLOUDY    61  52  72 SW7G16    29.79F
HINCKLEY       CLOUDY    61  54  77 SW10      29.83F
CLOQUET        CLOUDY    61  50  67 SW15      29.79S
MCGREGOR       CLOUDY    57  54  88 SW6       29.81R
$$
MNZ071>073-080-081-089-090-097-098-252200-
   Southwest Minnesota

CITY           SKY/WX    TMP DP  RH WIND       PRES   REMARKS
MONTEVIDEO     CLOUDY    63  48  59 NW16G25   29.98R
GRANITE FALLS  CLOUDY    63  50  61 W18       29.99R
CANBY          PTSUNNY   65  47  53 W22G32    30.00S
MARSHALL       CLOUDY    61  48  62 NW20      30.00R
REDWOOD FALLS  CLOUDY    62  47  57 NW15G33   29.97R
OLIVIA         CLOUDY    59  50  72 W14G28    29.95R
PIPESTONE      PTSUNNY   63  45  51 NW13G26   30.04S
WINDOM         CLOUDY    61  48  63 NW17G32   30.01R
WORTHINGTON    CLOUDY    59  49  69 W20G28    30.05R
JACKSON        CLOUDY    59  50  72 W14G20    30.03R
TRACY          CLOUDY    61  49  64 NW17G28   30.01S
SLAYTON        CLOUDY    57  48  72 W17G24    30.04R
$$
MNZ065>067-074>077-082>085-091>093-252200-
   South Central Minnesota

CITY           SKY/WX    TMP DP  RH WIND       PRES   REMARKS
MANKATO        LGT RAIN  61  52  72 W20G25    29.96R
NEW ULM        CLOUDY    61  52  72 NW20G32   29.96S
ST JAMES       CLOUDY    61  52  72 W14G25    29.99S
FAIRMONT       CLOUDY    61  50  67 W21G29    30.00R
GLENCOE        CLOUDY    61  56  83 W9G18     29.92S
FARIBAULT      CLOUDY    63  55  77 W17G23    29.94S
OWATONNA       CLOUDY    63  52  67 W13G21    29.94S
WASECA         DRIZZLE   59  54  82 W10G20    29.97R
ALBERT LEA     CLOUDY    63  52  67 W12G18    29.97R
$$
MNZ078>079-086>088-094>096-252200-
   Southeast Minnesota

CITY           SKY/WX    TMP DP  RH WIND       PRES   REMARKS
ROCHESTER      CLOUDY    66  52  60 W16G24    29.94R
RED WING       CLOUDY    64  52  63 W10G16    29.89F
STANTON        CLOUDY    64  53  65 W10G18    29.91F
DODGE CENTER   CLOUDY    63  52  67 W20G26    29.94S
WINONA         CLOUDY    70  54  56 W8        29.90F
AUSTIN         CLOUDY    63  52  67 W15G24    29.96R
PRESTON        CLOUDY    64  51  61 W15G21    29.94F
$$
ABBREVIATIONS USED IN REMARKS
   TC - TEMPERATURES IN CELSIUS
  WCI - WIND CHILL INDEX
   HX - HEAT INDEX
  VSB - VISIBILITY
$$




USA.gov is the U.S. government's official web portal to all federal, state and local government web resources and services.